Regional Weather Roundup
Issued by NWS

Home | Current Version | Previous Version | Text Only | Print | Product List | Glossary On
Versions: 1 2 3 4 5 6 7 8 9 10 11 12 13 14 15 16 17 18 19 20 21 22 23 24 25 26 27 28 29 30 31 32 33 34 35 36 37 38 39 40 41 42 43 44 45 46 47 48 49 50
000
ASUS45 KABQ 010110
RWRNM
NEW MEXICO REGIONAL WEATHER ROUNDUP
NATIONAL WEATHER SERVICE ALBUQUERQUE NM
700 PM MDT FRI JUL 31 2015

NOTE: "FAIR" MEANS FEW OR NO CLOUDS BELOW 12,000 FEET AGL WITH NO
       SIGNIFICANT WEATHER OR OBSTRUCTIONS TO VISION.

      THIS PRODUCT IS RELEASED AS TWO VERSIONS.  ONE VERSION NEAR
      THE TOP OF THE HOUR CONTAINING PRELIMINARY DATA FROM ALBUQUERQUE
      AND OTHER STATIONS.  A FINAL VERSION WITH ADDITIONAL DATA IS
      ISSUED ABOUT 10 MINUTES AFTER THE HOUR.

NMZ501-503-504-510>518-010200-
NORTHWEST PLATEAU/NORTHCENTRAL MOUNTAINS

CITY           SKY/WX    TMP DP  RH WIND       PRES   REMARKS
FARMINGTON     PTSUNNY   75  58  55 NE9       30.25S
LOS ALAMOS     CLOUDY    63  58  84 N3        30.41F
SANTA FE       CLOUDY    70  56  61 N10       30.34R
TAOS           CLOUDY    64  50  59 CALM      30.41F
ANGEL FIRE     CLOUDY    56  51  84 NW3       30.51S

$$
NMZ402-403-502-505>509-010200-
WESTCENTRAL MOUNTAINS/SOUTHWEST MOUNTAINS

CITY           SKY/WX    TMP DP  RH WIND       PRES   REMARKS
GALLUP         TSTM      66  57  72 SE13G22   30.31S
GRANTS         CLOUDY    69  61  75 CALM      30.34S
SILVER CITY      N/A     82  55  39 SE15      30.22F

$$
NMZ407-409-411-412-010200-
SOUTHERN DESERTS

CITY           SKY/WX    TMP DP  RH WIND       PRES   REMARKS
LORDSBURG      MOCLDY    86  57  37 SE14G20   30.10S
DEMING         SUNNY     87  56  34 SE9       30.11F
LAS CRUCES     SUNNY     87  53  30 SW5       30.14S
HOLLOMAN AFB   CLOUDY    86  55  35 N13       30.09F
ALAMOGORDO     PTSUNNY   88  54  31 N3        30.12S
T OR C         MOSUNNY   87  55  33 SE7       30.15F

$$
NMZ519>523-010200-
CENTRAL VALLEYS/CENTRAL HIGHLANDS

CITY           SKY/WX    TMP DP  RH WIND       PRES   REMARKS
ALBUQUERQUE    CLOUDY    75  57  53 N14       30.27R
DOUBLE EAGLE   CLOUDY    72  61  68 N9        30.30S
MORIARTY ARPT    N/A     69  60  72 S6        30.35R THUNDER
CLINES CORNERS CLOUDY    67  58  72 SE5       30.38F
BELEN          CLOUDY    76  56  49 N8        30.22S
SOCORRO        FAIR      88  47  23 S10       30.17R

$$
NMZ524>526-539-540-010200-
SOUTHCENTRAL MOUNTAINS

CITY           SKY/WX    TMP DP  RH WIND       PRES   REMARKS
RUIDOSO          N/A    N/A N/A N/A MISG        N/A

$$
NMZ527>531-010200-
NORTHEAST HIGHLANDS/NORTHEAST PLAINS

CITY           SKY/WX    TMP DP  RH WIND       PRES   REMARKS
LAS VEGAS      LGT RAIN  63  61  93 S9        30.37F
RATON          LGT RAIN  68  57  68 S7        30.30S
CLAYTON        CLOUDY    76  65  68 S14       30.23S

$$
NMZ532>537-010200-
EASTCENTRAL PLAINS

CITY           SKY/WX    TMP DP  RH WIND       PRES   REMARKS
TUCUMCARI      LGT RAIN  67  63  87 W3        30.18F
CANNON AFB     TSTM      73  64  73 VRB5      30.20R
CLOVIS AIRPORT MOCLDY    79  63  57 SE7       30.21S

$$
NMZ028-029-538-010200-
SOUTHEAST PLAINS

CITY           SKY/WX    TMP DP  RH WIND       PRES   REMARKS
ROSWELL        MOSUNNY   93  55  27 NE12      30.09R
ARTESIA        SUNNY     93  52  24 S10       30.08S
CARLSBAD       SUNNY     96  49  20 SE9       30.05S
HOBBS          PTCLDY    93  48  21 SE9       30.11R


$$


USA.gov is the U.S. government's official web portal to all federal, state and local government web resources and services.